Вернуться в каталог

SATCOM 3 DEB *

LostHEO
NORAD 32990·DEBRIS·🇺🇸 United States

Запущен Dec 7, 1979 с Cape Canaveral Space Force Station

Loading…

Ближайшие Пролёты (ближайшие 24 часа)

TLE

УстаревшееSource: Space-Track

Эпоха: Jun 24, 2022, 11:24 UTC

1 32990U 79101R   22175.47547965 -.00000125  00000-0  00000+0 0  9993
2 32990   7.0322 215.0620 5060493 224.5900 263.5182  1.81677887 96357

Отслеживайте SATCOM 3 DEB * в реальном времени с AllMySat

Download on the App Store